Temp
34 35 36 39 37 38 42 43 42 37 40 32 33 34 39 39 39 40 40 44 49 51 50 50 50 50 50 51 52 52 52 52 51 51 51 51 51 51
34 33 35 36 35 35 36 41 41 41 37 37 34 34 37 40 39 38 39 41 46 49 49 49 49 49 50 50 51 51 51 52 51 51 51 50 50 50
32 31 32 34 36 34 32 35 38 39 36 41 34 33 32 35 36 37 38 37 40 45 48 48 48 48 48 49 49 50 50 51 51 50 50 49 49 49
32 31 31 35 32 33 34 34 33 35 37 36 40 30 31 32 36 34 35 37 37 41 46 47 48 47 47 48 48 48 48 49 49 49 48 48 48 48
30 31 31 31 32 33 33 34 34 36 34 34 35 31 29 29 29 30 32 32 35 38 44 46 46 47 46 46 47 47 46 47 47 47 46 46 47 47
31 31 32 31 31 31 32 33 34 33 34 33 34 35 28 29 31 32 28 30 32 35 39 42 43 44 46 46 45 44 44 45 45 45 44 44 45 45
31 32 32 32 34 35 33 32 32 32 33 32 32 33 29 26 29 30 33 32 31 34 32 35 37 38 40 44 42 43 44 44 44 44 43 43 43 43
28 30 31 31 33 35 37 39 37 32 31 32 33 33 34 32 34 33 31 30 29 32 30 31 35 35 37 38 42 43 44 44 43 43 43 42 42 42
27 28 29 31 31 32 34 36 37 39 40 35 32 33 34 36 35 32 32 34 35 30 33 31 33 32 36 37 41 43 43 43 43 43 42 42 42 41
25 25 25 26 28 29 30 30 31 32 33 35 36 37 38 38 37 36 35 33 36 31 34 30 34 30 34 35 40 42 43 43 43 42 42 42 41 41
23 23 23 23 27 29 27 25 27 30 36 38 39 40 41 41 41 36 31 30 29 32 30 31 29 30 32 33 34 41 42 43 43 42 42 42 41 40
18 22 23 24 27 28 25 24 23 26 30 31 32 35 38 38 40 39 33 30 30 31 31 29 29 27 24 31 32 34 38 42 42 42 41 41 41 37
15 17 20 23 25 26 27 24 24 28 30 31 31 31 31 32 33 37 35 32 31 30 30 32 33 29 26 23 30 32 36 37 38 39 40 40 40 38
14 17 17 22 23 25 25 26 28 29 27 28 29 29 30 30 32 35 36 34 36 35 37 35 28 31 28 23 23 29 33 35 37 36 35 38 39 39
17 19 23 25 26 25 25 25 24 20 23 23 27 29 30 33 33 32 34 35 33 34 36 33 34 31 31 28 22 24 28 31 34 34 33 33 33 34
18 17 18 21 23 23 21 22 21 20 19 21 26 30 32 30 31 33 31 32 30 30 31 30 31 32 29 30 28 23 27 25 30 31 31 31 33 34
21 20 18 13 10 11 13 16 19 20 17 23 25 29 30 29 29 31 30 30 27 27 25 26 29 29 29 27 23 24 24 26 27 28 27 26 27 29
20 18 17 17 16 16 15 15 17 18 20 24 25 25 25 28 28 28 29 28 25 27 24 20 23 21 20 20 27 23 24 24 24 26 26 23 22 26
14 13 13 15 16 16 15 15 15 19 21 22 23 24 25 27 27 27 25 26 24 26 22 20 21 22 18 16 18 27 22 22 22 21 23 23 21 22
8 9 10 11 13 15 15 15 16 18 20 21 23 23 26 28 26 26 25 24 24 24 20 19 21 22 22 20 15 19 26 21 21 20 19 20 22 26
5 6 7 8 9 10 15 15 14 15 17 18 21 23 25 27 26 26 26 24 23 22 18 17 21 25 24 19 15 16 20 25 24 21 19 17 15 15
4 4 6 7 10 13 16 17 17 17 17 19 21 24 25 25 25 24 23 22 22 21 20 19 20 18 18 18 17 15 16 19 24 24 23 20 15 11
2 3 4 6 8 10 12 16 20 19 20 21 23 25 23 23 25 23 22 22 21 19 17 16 16 17 17 18 16 15 14 15 15 14 15 20 20 20
MSLP
1021.39 1021.32 1021.16 1020.82 1020.36 1020.04 1019.99 1020.08 1020.13 1019.77 1018.91 1019.05 1019.18 1018.38 1018.40 1018.62 1018.53 1018.88 1019.25 1019.38 1019.52 1019.62 1019.95 1020.49 1020.95 1021.28 1021.55 1021.83 1021.95 1022.08 1022.27 1022.49 1022.72 1022.87 1022.97 1023.23 1023.37 1023.37
1021.24 1021.08 1020.83 1020.39 1020.11 1019.87 1019.65 1019.44 1019.43 1019.20 1017.94 1017.89 1017.90 1017.48 1017.54 1017.69 1018.03 1018.34 1018.42 1018.93 1019.07 1019.26 1019.47 1019.70 1020.03 1020.42 1020.80 1021.23 1021.61 1021.80 1021.84 1021.87 1022.00 1022.31 1022.65 1022.85 1023.10 1023.29
1020.84 1020.95 1020.73 1019.92 1019.61 1019.47 1019.24 1019.02 1018.81 1018.72 1017.84 1017.17 1017.24 1016.92 1017.16 1017.22 1017.45 1017.63 1017.95 1018.34 1018.39 1018.53 1018.76 1019.09 1019.42 1019.84 1020.16 1020.55 1020.82 1021.16 1021.47 1021.57 1021.71 1021.74 1021.97 1022.40 1022.65 1022.96
1020.80 1020.46 1020.34 1019.69 1019.25 1018.96 1018.65 1018.38 1018.15 1017.94 1017.69 1016.83 1016.91 1016.79 1016.75 1016.51 1016.41 1016.81 1017.08 1017.40 1017.75 1017.94 1018.16 1018.41 1018.69 1018.98 1019.40 1019.83 1020.13 1020.42 1020.73 1021.01 1021.35 1021.56 1021.67 1021.95 1022.21 1022.38
1020.94 1020.36 1019.70 1019.33 1018.87 1018.41 1018.21 1017.66 1017.40 1017.00 1016.74 1016.32 1015.97 1016.06 1016.03 1016.03 1016.23 1016.22 1016.42 1016.76 1017.03 1017.23 1017.40 1017.64 1017.92 1018.23 1018.62 1018.93 1019.13 1019.52 1019.86 1020.35 1020.75 1021.15 1021.51 1021.73 1021.85 1022.06
1020.41 1019.83 1019.45 1018.68 1018.16 1017.80 1017.50 1017.25 1016.77 1016.44 1015.98 1015.49 1015.06 1015.13 1015.57 1015.60 1015.30 1015.30 1015.93 1015.99 1016.19 1016.52 1016.65 1016.65 1016.96 1017.39 1017.72 1018.01 1018.17 1018.54 1018.95 1019.40 1019.84 1020.35 1020.85 1021.27 1021.54 1021.71
1019.31 1018.82 1018.19 1017.87 1017.31 1017.20 1016.93 1016.07 1016.23 1015.63 1015.24 1014.61 1014.14 1014.36 1014.34 1014.76 1014.73 1014.52 1014.35 1014.98 1015.18 1015.40 1015.84 1015.97 1016.21 1016.33 1016.52 1016.89 1017.29 1017.80 1018.04 1018.39 1018.85 1019.36 1019.87 1020.39 1020.85 1021.30
1018.73 1017.93 1017.46 1017.08 1016.39 1016.01 1016.00 1015.28 1014.96 1014.65 1014.12 1013.92 1013.21 1012.75 1012.63 1013.00 1013.21 1013.64 1013.62 1013.84 1014.26 1014.20 1015.12 1015.09 1015.57 1015.30 1015.36 1015.79 1016.11 1016.59 1017.09 1017.58 1017.92 1018.48 1019.02 1019.63 1020.25 1020.76
1018.17 1017.60 1016.92 1016.29 1015.69 1015.15 1014.64 1014.18 1013.93 1013.08 1012.80 1012.58 1012.04 1011.28 1011.42 1011.38 1012.15 1012.41 1012.51 1012.13 1011.33 1012.48 1013.44 1013.41 1014.09 1014.05 1014.30 1014.48 1014.92 1015.28 1015.69 1016.36 1016.99 1017.43 1017.87 1018.48 1019.13 1019.92
1017.57 1017.07 1016.45 1015.64 1015.22 1014.93 1014.22 1013.45 1012.62 1011.94 1011.63 1011.12 1010.54 1009.83 1010.03 1010.22 1010.44 1010.85 1011.34 1011.07 1010.82 1011.30 1011.73 1011.72 1011.99 1011.89 1012.80 1013.37 1013.60 1013.85 1014.36 1015.00 1015.84 1016.48 1017.05 1017.51 1018.31 1018.90
1016.82 1016.28 1015.74 1014.91 1014.33 1014.16 1013.43 1012.40 1011.46 1010.44 1009.90 1009.94 1009.38 1008.77 1008.73 1008.79 1009.23 1010.03 1010.51 1010.71 1010.17 1010.08 1011.10 1010.79 1011.01 1011.63 1012.08 1012.16 1012.67 1012.86 1013.05 1013.75 1014.36 1015.12 1015.99 1016.64 1017.41 1018.28
1015.89 1015.12 1014.58 1013.84 1013.08 1012.69 1012.18 1011.56 1010.50 1009.19 1009.39 1008.82 1008.22 1007.68 1007.50 1007.56 1007.93 1008.40 1009.00 1009.04 1008.97 1009.20 1009.12 1010.38 1010.60 1010.98 1011.71 1011.13 1011.53 1012.11 1012.29 1012.79 1013.23 1014.02 1015.12 1015.74 1016.60 1017.48
1015.06 1014.25 1013.75 1013.36 1012.49 1011.87 1011.36 1010.49 1009.28 1008.75 1007.95 1007.49 1006.99 1006.56 1006.36 1006.30 1006.55 1006.88 1006.99 1007.59 1007.41 1007.14 1007.90 1008.62 1008.98 1009.88 1010.01 1010.22 1010.43 1010.65 1011.10 1011.59 1012.31 1013.20 1013.82 1014.76 1015.61 1016.41
1014.16 1013.46 1012.81 1012.37 1011.52 1010.68 1010.17 1009.55 1008.47 1007.71 1006.82 1005.94 1005.28 1004.75 1004.67 1004.88 1004.98 1005.03 1005.49 1005.76 1005.65 1005.56 1006.72 1007.16 1007.68 1008.36 1009.31 1009.80 1009.97 1009.97 1010.15 1010.73 1011.46 1011.90 1012.44 1013.43 1014.35 1015.44
1012.93 1012.04 1011.04 1010.14 1009.29 1008.56 1008.48 1008.09 1007.54 1007.03 1006.12 1004.99 1003.26 1002.83 1002.67 1002.88 1003.52 1004.02 1004.28 1004.68 1004.85 1005.21 1005.63 1006.18 1006.51 1007.44 1008.01 1008.53 1009.21 1009.69 1009.94 1010.06 1010.89 1011.20 1011.68 1012.01 1012.80 1013.95
1011.20 1010.10 1009.27 1008.70 1008.16 1007.36 1007.00 1006.61 1006.12 1005.74 1005.09 1003.92 1002.44 1001.26 1001.40 1001.71 1002.04 1002.44 1002.98 1003.41 1003.88 1004.06 1004.68 1005.15 1005.70 1006.24 1006.92 1007.41 1008.15 1009.39 1009.58 1009.61 1009.95 1010.45 1011.22 1011.94 1012.44 1012.83
1008.88 1007.88 1007.41 1007.24 1006.94 1006.52 1005.95 1005.20 1004.59 1004.12 1003.56 1001.73 1001.05 999.97 1000.09 1000.17 1000.36 1000.97 1001.58 1002.21 1002.51 1002.82 1003.68 1004.35 1004.83 1005.38 1005.96 1006.60 1007.49 1008.07 1008.79 1009.31 1009.53 1010.03 1010.86 1011.40 1012.25 1012.55
1007.43 1006.59 1006.14 1005.71 1005.19 1004.59 1004.07 1003.55 1003.08 1002.46 1001.51 1000.18 999.28 998.85 998.68 998.95 999.41 999.84 1000.32 1000.86 1001.38 1001.91 1002.69 1003.58 1004.38 1005.24 1006.10 1006.64 1006.55 1007.01 1007.64 1008.44 1009.15 1009.70 1010.51 1011.27 1011.89 1012.33
1007.74 1006.93 1006.12 1005.22 1004.16 1003.28 1002.67 1002.20 1001.60 1001.01 1000.36 999.74 998.64 998.22 998.09 998.11 998.48 998.73 999.14 999.68 1000.20 1000.89 1001.72 1002.66 1003.34 1003.88 1004.77 1005.28 1006.39 1006.36 1006.65 1007.44 1008.37 1009.38 1009.92 1010.55 1011.20 1011.84
1008.49 1007.52 1006.33 1005.13 1003.68 1002.40 1001.57 1001.11 1000.61 1000.07 999.41 998.84 998.06 997.42 997.26 997.13 996.97 997.44 998.04 998.56 999.23 1000.06 1001.02 1001.88 1002.25 1002.52 1002.76 1003.46 1005.24 1005.76 1005.85 1006.49 1007.25 1008.34 1009.49 1010.95 1011.48 1011.85
1008.68 1007.63 1006.51 1005.11 1003.48 1002.09 1000.68 1000.08 999.76 999.26 998.69 998.19 997.64 997.01 996.60 996.33 996.18 996.54 997.09 997.73 998.48 999.19 1000.08 1000.77 1000.77 1001.52 1002.58 1003.54 1004.82 1005.44 1005.89 1006.36 1006.77 1007.31 1008.77 1010.17 1010.88 1011.70
1008.94 1007.80 1006.41 1004.99 1003.21 1001.46 999.98 999.06 998.32 997.87 997.61 997.22 996.72 996.23 995.91 995.82 995.81 996.00 996.47 997.14 997.82 998.47 999.30 1000.44 1001.26 1002.10 1002.80 1003.30 1004.14 1005.04 1005.79 1006.47 1007.14 1007.78 1008.53 1009.08 1009.70 1010.58
1009.19 1008.09 1006.70 1005.21 1003.63 1002.05 1000.49 998.92 997.14 996.20 996.13 995.92 995.60 995.35 995.17 995.26 995.37 995.77 996.22 996.77 997.50 998.42 999.36 1000.41 1001.26 1002.04 1002.72 1003.25 1003.95 1004.91 1005.70 1006.40 1007.16 1008.03 1009.03 1009.31 1009.86 1010.48
Wind_Speed
5 6 7 8 5 5 5 8 10 13 14 5 5 8 9 7 11 11 12 18 24 24 23 22 21 21 20 20 20 19 17 16 15 14 13 12 10 10
5 6 7 6 6 5 5 7 8 11 16 4 6 6 8 8 9 11 13 16 22 23 23 23 23 23 22 22 21 20 19 19 18 17 15 13 12 11
6 6 8 7 7 5 4 6 8 8 13 11 4 5 6 9 7 10 9 11 11 24 23 24 24 23 23 23 23 22 21 20 19 18 17 15 14 13
11 7 9 7 7 7 6 8 7 8 10 16 9 4 8 8 11 10 10 9 10 18 26 25 25 25 25 25 24 23 22 20 19 18 18 17 16 15
10 11 11 8 9 7 8 9 7 7 8 10 11 4 4 3 3 4 8 8 7 16 26 26 25 26 26 27 26 23 21 20 21 19 18 18 17 16
11 11 12 11 11 10 9 11 9 9 8 9 10 9 5 4 4 7 6 6 9 9 17 18 21 24 27 28 26 24 22 22 23 22 20 19 19 17
16 14 12 14 18 18 10 10 10 10 9 9 10 8 6 5 6 4 10 6 10 9 9 10 10 12 14 24 20 24 25 26 26 24 23 22 21 19
16 16 15 17 17 24 27 27 20 12 12 11 11 12 14 10 8 9 8 8 8 8 8 11 10 13 12 12 23 26 27 27 27 26 24 23 22 20
17 17 16 13 16 15 20 26 27 27 27 16 16 16 13 10 9 11 11 12 13 4 12 13 11 14 11 12 28 30 29 28 27 27 27 26 24 22
17 17 18 19 18 19 18 18 18 17 18 14 17 19 16 12 11 12 14 14 11 3 11 11 11 14 12 11 28 31 29 29 28 28 27 27 25 24
18 18 18 20 26 31 22 21 21 20 21 28 29 29 26 26 20 8 11 10 11 11 10 4 5 7 8 11 12 31 30 31 30 28 29 28 26 24
16 17 25 25 32 33 22 20 21 22 17 17 14 20 25 21 27 18 12 15 13 10 9 10 6 5 3 7 10 11 15 29 28 30 29 28 27 11
13 13 12 27 33 34 33 20 21 21 22 20 16 14 13 12 12 14 14 14 14 15 8 11 9 7 3 3 6 11 13 14 15 19 31 30 29 20
15 13 14 29 31 32 29 34 39 31 16 15 14 14 14 12 12 12 16 14 15 18 9 15 5 12 9 4 4 7 11 11 13 15 14 22 30 29
14 21 34 35 36 29 28 30 30 15 16 16 16 15 14 13 12 11 12 14 14 16 11 12 12 8 9 10 4 5 13 11 12 12 13 14 15 14
25 20 24 29 32 28 19 18 13 13 14 17 17 12 10 10 11 12 11 11 10 10 12 13 15 14 12 11 7 6 9 10 12 12 11 11 11 11
22 14 11 10 11 12 12 13 12 13 14 18 18 13 11 9 11 11 11 10 10 11 8 7 12 13 9 10 8 9 11 10 9 11 11 11 10 10
17 12 12 12 13 13 13 12 12 15 12 13 11 10 7 7 10 11 11 11 10 10 9 7 8 6 2 1 8 9 9 10 8 12 10 10 9 8
11 11 12 13 13 13 12 12 13 12 13 12 9 9 9 10 12 11 10 11 11 11 8 9 11 9 11 12 3 13 10 9 10 10 10 10 9 9
9 11 12 13 14 13 11 10 9 10 10 10 9 6 9 10 11 12 10 12 11 9 8 9 10 12 13 12 6 4 17 10 11 12 10 5 5 13
10 11 12 13 13 13 12 10 11 12 11 11 11 9 9 10 10 10 10 14 14 9 11 11 13 13 4 8 5 4 6 17 13 12 11 8 6 5
10 12 12 13 13 12 11 10 11 11 11 11 12 10 8 7 7 7 9 10 10 9 9 6 8 8 6 7 8 11 7 7 12 15 11 6 6 8
11 11 11 12 11 12 12 11 10 9 9 10 10 10 6 7 7 7 8 9 8 7 9 8 7 7 5 4 9 9 9 11 6 8 6 10 9 8
Wind_Direction
276 272 267 270 258 233 234 241 255 268 261 238 242 216 223 217 215 203 211 218 214 215 213 214 215 218 219 221 219 213 210 207 202 201 197 196 193 185
296 277 274 266 262 247 237 244 243 258 272 208 224 219 213 218 219 209 214 210 215 218 217 215 215 216 218 220 222 218 213 208 202 201 200 197 195 193
304 292 280 264 270 256 234 241 250 248 263 270 232 226 210 206 209 211 209 208 216 217 216 218 219 220 220 220 219 219 218 215 209 203 200 199 195 195
307 297 284 290 273 264 256 246 233 241 255 269 263 232 218 215 214 209 209 214 214 221 218 218 220 220 221 220 219 218 217 216 214 210 205 203 201 196
283 291 289 281 280 273 266 265 253 245 237 253 261 234 223 187 193 214 206 211 212 216 222 221 222 223 222 220 219 217 214 214 214 212 210 209 204 199
278 268 273 273 270 268 262 265 263 253 248 250 254 250 221 224 214 196 210 208 216 214 223 219 219 221 224 222 219 216 210 210 211 209 208 210 208 202
292 286 278 268 261 264 263 258 257 257 253 252 254 244 213 201 219 199 221 203 222 212 213 218 209 213 221 226 222 216 211 209 209 208 205 206 206 204
287 286 284 280 273 270 272 269 255 251 253 250 252 245 243 222 216 214 211 199 235 183 196 222 211 220 215 214 216 214 213 212 209 208 205 205 205 204
283 282 281 278 281 279 276 273 272 265 254 249 250 244 251 234 214 214 210 220 225 153 193 225 201 228 215 212 213 214 212 211 210 208 205 203 201 201
279 279 279 282 278 281 279 273 267 260 257 253 249 253 245 241 227 215 221 225 240 181 189 218 189 220 208 214 215 213 211 208 209 209 207 203 202 200
285 280 277 276 276 279 278 277 275 268 262 258 253 252 247 244 237 217 227 219 235 226 196 236 184 206 207 214 213 216 212 209 206 206 206 203 200 199
286 286 283 281 282 279 271 268 266 263 264 262 258 260 253 246 244 237 214 219 227 240 189 208 187 150 205 215 205 212 210 213 207 206 205 202 199 193
285 287 288 293 292 290 289 278 269 273 266 258 254 249 245 238 232 234 216 214 218 228 178 194 206 194 222 124 204 201 204 201 200 203 200 201 201 190
287 281 280 285 285 281 276 274 280 280 276 256 249 240 237 233 228 225 231 222 226 229 208 194 186 197 211 188 192 188 205 199 196 193 190 195 199 199
271 271 275 281 282 288 294 285 283 277 276 270 244 244 229 229 228 225 225 233 231 231 225 202 209 199 201 222 178 200 182 196 201 193 188 187 188 187
271 269 263 268 269 271 275 273 265 262 266 264 266 236 227 213 216 216 220 219 222 221 212 197 205 207 210 212 192 183 200 187 193 194 188 191 190 186
283 279 272 252 255 258 254 251 255 258 266 249 242 231 225 212 213 210 212 214 219 214 193 189 197 201 207 192 188 185 188 202 198 187 179 183 192 185
292 280 281 283 278 271 262 259 258 264 265 268 247 241 224 229 225 203 204 209 210 210 187 170 166 147 114 339 210 185 186 188 183 187 188 189 189 182
314 311 299 290 284 276 265 259 260 260 266 272 243 236 237 233 222 204 200 202 205 205 184 173 178 185 190 207 148 212 181 173 163 178 186 195 184 175
313 308 302 299 295 284 270 262 259 263 268 264 273 244 238 248 208 204 200 202 201 192 179 180 191 198 203 202 166 181 185 166 171 171 167 129 116 142
315 309 304 300 293 281 272 254 246 251 257 265 266 259 251 252 216 213 207 198 192 184 184 191 199 195 152 94 121 151 164 184 175 165 155 154 147 136
317 314 313 312 310 315 283 263 251 240 240 247 254 252 243 233 228 205 190 190 194 186 191 165 149 141 152 171 173 157 154 147 159 150 149 117 154 162
321 319 317 319 320 323 324 321 308 244 234 236 241 244 216 215 213 196 191 190 185 159 149 147 147 158 162 167 152 152 149 142 138 129 95 97 95 94